Location: Bay Harbour
(38.2612°N, 75.2555°W)
Time: 00:57:34
(UTC+00:00)

Cosmos 2297 Rocket - Pass Details

Date: 29 October 2020
Orbit: 838 x 844 km, 71.0° (Epoch: 02 December)

Event Time Altitude Azimuth Distance (km) Brightness Sun altitude
Rises 22:37:55 0° 342° (NNW) 3,410 5.4 -7.2°
Reaches altitude 10° 22:40:27 10° 347° (NNW) 2,471 4.7 -7.7°
Maximum altitude 22:45:59 53° 64° (ENE) 1,030 2.3 -8.8°
Drops below altitude 10° 22:51:29 10° 141° (SE) 2,455 4.3 -9.8°
Sets 22:53:59 0° 146° (SE) 3,385 5.1 -10.3°
